Flag for Norfolk Island Weather past 2 weeks in Kingston, Norfolk Island

Now
59 °F

Mostly cloudy.


Feels Like: 58 °F
Forecast: 60 / 65 °F
Wind: 8 mph from South

Location: Norfolk Island Airport

Current Time: Jul 5, 2015 at 7:53:12 PM

Latest Report: Jul 5, 2015 at 7:30 PM


Visibility: N/A

Pressure: 30.12 "Hg

Humidity: 72%

Dew point: 50 °F

Location of KingstonLocation

Historic Weather in Kingston — Graph

°F

Kingston temperature yesterday

Maximum temperature yesterday: 63 °F (at 12:00 AM)
Minimum temperature yesterday: 55 °F (at 2:00 AM)
Average temperature yesterday: 60 °F

Past Weeks' High & Low Weather Summary

 TemperatureHumidityPressure
High66 °F (Jun 20, 6:30 PM)94% (Jun 23, 6:30 AM)30.39 "Hg (Jun 23, 6:30 AM)
Low54 °F (Jun 25, 12:30 AM)43% (Jun 25, 11:00 AM)29.71 "Hg (Jul 4, 2:00 AM)
Average61 °F66%30.16 "Hg
* Reported Jun 20 6:30 PM — Jul 5 6:30 PM, Kingston, Weather by CustomWeather, © 2015

Note: Actual official high and low records may vary slightly from our data, if they occured in-between our weather recording intervals... More about our weather records

Advertising

Kingston weather history for previous 24 hours

 ConditionsComfort  
Time TempWeatherWind HumidityBarometerVisibility
6:30 PM
Sun, Jul 5
59 °FPartly cloudy.6 mph72%30.09 "HgN/A
6:00 PM59 °FPassing clouds.5 mph68%30.09 "HgN/A
5:30 PM59 °FPassing clouds.7 mph72%30.07 "HgN/A
5:00 PM61 °FPassing clouds.9 mph63%30.07 "HgN/A
4:30 PM61 °FPassing clouds.9 mph63%30.07 "HgN/A
4:00 PM61 °FPassing clouds.9 mph63%30.07 "HgN/A
3:00 PM63 °FPassing clouds.13 mph59%30.07 "HgN/A
2:30 PM63 °FPassing clouds.13 mph56%30.07 "HgN/A
2:00 PM63 °FPassing clouds.16 mph56%30.07 "HgN/A
1:30 PM63 °FPassing clouds.14 mph56%30.07 "HgN/A
1:00 PM63 °FScattered clouds.14 mph56%30.09 "HgN/A
12:30 PM63 °FScattered clouds.12 mph56%30.09 "HgN/A
12:00 PM63 °FScattered clouds.12 mph64%30.09 "HgN/A
11:30 AM63 °FScattered clouds.10 mph59%30.12 "HgN/A
11:00 AM63 °FScattered clouds.14 mph59%30.12 "HgN/A
10:30 AM61 °FScattered clouds.12 mph63%30.12 "HgN/A
10:00 AM63 °FScattered clouds.13 mph52%30.09 "HgN/A
9:30 AM61 °FPartly sunny.10 mph63%30.09 "HgN/A
9:00 AM61 °FSprinkles. Scattered clouds.10 mph63%30.09 "HgN/A
8:30 AM59 °FPassing clouds.12 mph68%30.09 "HgN/A
8:00 AM59 °FPassing clouds.9 mph72%30.09 "HgN/A
7:30 AM59 °FSprinkles. Scattered clouds.9 mph59%30.09 "HgN/A
7:00 AM59 °FScattered showers. Scattered clouds.9 mph59%30.09 "HgN/A
6:30 AM57 °FPassing clouds.10 mph63%30.07 "HgN/A
6:00 AM57 °FClear.9 mph67%30.07 "HgN/A
5:30 AM57 °FPartly cloudy.12 mph72%30.07 "HgN/A
5:00 AM57 °FPartly cloudy.13 mph67%30.04 "HgN/A
4:30 AM57 °FOvercast.12 mph72%30.04 "HgN/A
4:00 AM55 °FOvercast.18 mph82%30.04 "HgN/A
3:30 AM59 °FOvercast.16 mph55%30.04 "HgN/A
3:00 AM59 °FPartly cloudy.9 mph63%30.04 "HgN/A
2:30 AM59 °FPassing clouds.15 mph68%30.01 "HgN/A
2:00 AM59 °FPartly cloudy.14 mph63%30.04 "HgN/A
1:30 AM59 °FPartly cloudy.18 mph55%30.04 "HgN/A
1:00 AM59 °FPartly cloudy.17 mph55%30.04 "HgN/A
12:30 AM59 °FMostly cloudy.18 mph59%30.04 "HgN/A
12:00 AM59 °FOvercast.17 mph51%30.04 "HgN/A
11:30 PM
Sat, Jul 4
61 °FMostly cloudy.17 mph48%30.04 "HgN/A
10:30 PM59 °FPassing clouds.21 mph45%30.04 "HgN/A
10:00 PM61 °FPartly cloudy.18 mph52%30.01 "HgN/A
9:30 PM59 °FMostly cloudy.17 mph59%30.01 "HgN/A
9:00 PM59 °FPassing clouds.16 mph51%30.01 "HgN/A
8:30 PM61 °FMostly cloudy.18 mph48%30.01 "HgN/A
8:17 PM61 °FOvercast.17 mph55%30.01 "HgN/A
7:31 PM59 °FPassing clouds.21 mph48%29.98 "HgN/A
7:00 PM59 °FPassing clouds.22 mph55%29.95 "HgN/A
Weather by CustomWeather, © 2015

See weather overviewHow to use our weather pages